Orbital Elements at Epoch 2459200.5 (2020-Dec-17.0) TDB
Reference: JPL 14 (heliocentric ecliptic J2000)
Element | Value | Uncertainty (1-sigma) | Units |
e | .1179536828468852 | 3.9137e-08 | |
a | 2.390617528495196 | 1.3637e-08 | au |
q | 2.108635386730869 | 8.8729e-08 | au |
i | 1.125493899063602 | 5.2721e-06 | deg |
node | 36.18466150578146 | 0.00019389 | deg |
peri | 107.2439692224385 | 0.00019576 | deg |
M | 137.6123031065026 | 2.6666e-05 | deg |
tp | 2458684.418443490712 (2019-Jul-19.91844349) | 9.7956e-05 | TDB |
period | 1350.092659953197 3.70 | 1.1552e-05 3.163e-08 | d yr |
n | .2666483647222258 | 2.2816e-09 | deg/d |
Q | 2.672599670259523 | 1.5246e-08 | au |
|
| | Orbit Determination Parameters
Additional Information
|